Simultaneous Nadir Overpasses (SNOs) Predictions

Prediction of SNOs between GOES-16 and NPP Satellite Orbit:

Table of predicted SNOs for the next 14.0 days since TLE Epoch: 6/14/2024
Index Date Time (GOES-16) GOES-16 Lat,Lon NPP Lat,Lon Distance(km) Time Diff (sec)
1 06/15/2024 18:35:18 -0.02, -75.20 -0.46, -77.18 225.71 80
2 06/16/2024 18:13:52 -0.01, -75.21 0.57, -72.65 291.97 80
3 06/18/2024 06:38:16 0.02, -75.22 0.64, -77.90 305.85 80
4 06/19/2024 06:16:49 0.01, -75.22 -0.39, -73.36 211.89 80
5 06/20/2024 18:41:23 -0.01, -75.23 -0.77, -78.66 390.65 80
6 06/21/2024 18:19:56 -0.00, -75.24 0.26, -74.12 127.19 80
7 06/23/2024 06:44:21 0.00, -75.25 0.93, -79.38 470.37 80
8 06/24/2024 06:22:54 -0.00, -75.26 -0.10, -74.84 47.71 80
9 06/26/2024 18:28:40 0.00, -75.28 -0.06, -75.59 35.35 80
10 06/27/2024 18:07:13 0.00, -75.30 0.98, -71.06 483.56 80
